Location: Çayiçi
(36.4667°N, 30.2333°E)
Time: 01:54:53
(UTC+00:00)

CZ-4 R/B - Pass Details

Date: 09 February 2023
Orbit: 526 x 586 km, 97.7° (Epoch: 01 April)

Event Time Altitude Azimuth Distance (km) Brightness Sun altitude
Rises 17:47:46 0° 189° (S) 2,786 5.0 -27.5°
Reaches altitude 10° 17:50:07 10° 200° (SSW) 1,884 4.2 -28.0°
Maximum altitude 17:53:44 30° 263° (W) 1,034 3.2 -28.7°
Drops below altitude 10° 17:57:19 10° 325° (NW) 1,867 4.4 -29.4°
Sets 17:59:39 0° 336° (NNW) 2,756 5.2 -29.9°
